Wind_Speed
20 19 18 17 16 16 16 20 20 19 18 15 13 13 12 11 10 9 8 7 7 7 7 8 8 7 7 8 8 8 9 9 9 9 8 6 5 4 3 2 1 0 1 1 2 2 3 3 2
21 20 20 19 17 16 18 22 22 21 19 15 14 13 13 12 12 11 9 8 8 8 8 8 8 8 8 8 9 9 10 10 10 9 8 7 6 5 5 4 3 2 2 1 1 1 2 2 1
22 21 20 20 18 18 20 25 25 22 19 16 16 14 14 13 12 11 9 9 8 8 8 8 8 8 9 9 10 10 11 11 10 10 9 8 8 7 7 6 5 5 4 3 3 2 2 2 1
22 21 21 20 20 22 26 26 25 23 20 17 16 15 14 13 12 10 9 8 8 9 8 7 8 9 9 10 11 11 12 12 12 11 10 10 10 9 8 8 7 7 6 6 5 4 4 3 3
21 21 20 20 21 24 27 27 26 24 21 18 17 16 14 14 13 12 10 9 9 9 8 8 8 9 10 11 12 13 14 14 14 13 12 12 11 11 10 10 9 9 9 7 7 6 5 5 5
20 19 19 19 22 25 27 27 27 25 22 20 18 17 17 16 15 13 11 10 9 9 8 8 9 10 11 12 13 14 14 15 15 14 13 13 13 13 12 12 11 11 10 9 9 8 7 7 7
19 18 19 20 23 26 28 28 28 27 24 22 20 19 19 18 16 15 13 12 10 9 9 9 9 10 12 13 14 14 15 15 15 16 15 15 14 15 15 14 13 13 12 11 11 10 10 9 9
18 19 19 21 24 27 28 29 29 28 26 23 22 21 20 19 18 16 14 13 11 11 10 10 10 11 12 13 14 15 16 16 15 16 17 16 15 16 16 16 15 15 14 14 13 13 12 11 11
18 18 20 22 25 27 28 30 30 29 27 25 23 22 21 19 17 16 15 14 13 13 13 12 12 13 13 14 15 16 17 17 17 17 18 18 18 18 17 17 17 16 16 15 15 15 14 14 13
18 19 22 24 25 26 28 29 30 29 28 26 24 23 22 20 19 18 17 16 16 16 15 15 15 15 16 17 17 17 18 19 19 20 20 20 21 20 20 19 19 18 17 17 16 16 16 15 15
18 20 22 23 24 25 27 29 29 29 28 27 25 24 23 22 21 20 19 19 19 18 18 18 18 18 18 19 20 20 20 20 21 22 22 23 23 23 22 22 22 21 20 19 18 17 17 17 17
17 18 20 22 23 24 26 27 29 29 28 27 25 24 24 23 22 21 22 21 21 21 21 21 20 20 20 20 21 22 22 22 23 24 24 24 24 25 24 24 24 23 22 21 21 20 19 20 19
15 17 18 20 21 23 25 27 28 28 28 26 24 23 23 23 24 23 23 23 23 23 22 22 22 21 21 21 22 23 23 24 24 24 25 25 26 27 27 26 26 25 24 23 23 22 21 21 21
15 16 17 19 21 22 24 26 26 27 26 26 24 24 24 24 24 24 23 24 24 24 24 23 23 23 23 23 23 24 24 25 26 26 26 27 27 28 28 27 27 26 25 24 23 23 23 23 23
14 15 16 18 20 21 22 25 26 26 25 25 24 24 24 25 25 25 24 25 25 25 25 25 25 24 24 25 25 25 26 26 27 28 29 29 29 28 29 29 29 28 27 26 25 24 24 25 25
14 14 16 18 19 20 20 22 24 24 24 24 24 24 24 25 25 25 25 25 26 26 26 25 25 25 25 26 26 26 27 27 28 29 28 29 29 30 31 30 29 29 28 28 28 26 26 26 27
14 14 16 18 19 19 20 22 22 23 23 23 23 23 23 24 24 24 24 25 26 26 26 26 26 26 26 25 25 26 27 28 29 29 30 30 30 30 31 31 30 30 30 30 30 30 29 28 29
15 15 16 18 18 18 19 20 20 21 21 21 21 22 22 22 22 23 24 25 26 26 26 27 27 28 27 26 26 26 27 28 29 30 31 31 30 30 30 31 31 32 32 31 32 31 30 30 30
15 15 16 18 17 17 17 17 17 17 17 18 19 20 21 22 23 23 24 25 25 25 26 27 28 28 28 27 27 27 27 27 28 29 30 31 31 30 30 31 32 31 31 32 32 32 30 31 32
13 13 15 16 16 16 16 16 16 15 16 17 18 19 21 22 23 24 24 25 25 26 27 28 28 28 28 28 28 27 27 28 28 28 28 29 30 30 31 30 31 32 32 31 31 31 30 31 32
13 13 15 15 14 14 14 14 15 16 17 18 19 20 21 22 23 23 24 25 26 27 28 28 28 28 28 28 28 28 28 28 28 27 27 28 29 30 31 30 32 32 30 30 31 30 30 29 29
13 14 14 14 12 13 12 12 16 16 17 19 20 20 21 21 22 23 24 24 25 27 28 28 28 28 28 28 28 28 28 28 28 28 27 27 28 28 29 30 30 30 31 30 30 30 30 30 29
14 14 13 13 12 11 12 11 16 16 18 19 20 21 22 22 22 23 23 24 25 26 26 27 27 27 27 28 28 28 28 27 27 27 27 27 27 28 28 29 28 29 30 30 30 29 29 29 29
13 13 12 12 11 12 13 12 15 16 16 18 19 20 21 21 21 22 22 23 24 24 25 25 25 25 26 27 27 27 27 26 26 26 27 28 27 27 28 28 28 29 29 30 29 29 29 29 29
12 11 10 10 10 12 15 14 16 17 17 18 19 19 20 19 19 20 21 22 23 23 23 23 23 23 23 24 25 26 26 26 25 25 26 27 27 27 27 28 28 29 29 29 29 30 29 30 30
12 11 11 11 11 12 16 15 17 17 18 18 18 18 19 19 20 21 21 22 21 21 21 22 22 22 22 23 24 25 26 26 26 25 25 25 26 26 26 26 27 28 28 29 29 28 28 29 29
12 12 12 11 11 11 14 15 16 16 16 17 17 18 19 20 20 21 21 21 21 20 20 21 22 21 22 23 23 24 25 25 25 25 24 25 25 25 26 25 25 25 26 27 28 27 27 28 28
13 13 13 10 10 11 12 14 15 15 16 16 17 18 19 20 20 21 21 21 20 20 20 21 21 21 21 22 22 23 23 23 23 23 23 23 24 24 25 23 22 23 25 26 26 28 27 26 27
13 13 12 12 12 12 12 14 16 16 17 17 18 19 19 20 21 21 21 21 21 20 20 20 20 20 20 21 21 21 21 22 22 22 22 22 22 23 24 23 22 23 24 25 26 27 27 27 26
14 14 13 13 14 14 14 16 16 17 17 18 18 19 20 20 21 21 21 21 21 21 20 20 19 20 20 20 20 21 21 21 21 21 21 21 21 21 22 23 23 23 24 24 25 26 26 26 25
Wind_Direction
253 249 247 245 244 242 237 241 239 237 234 227 221 213 208 206 202 204 204 202 204 202 194 185 179 185 197 207 211 215 215 214 211 207 205 204 202 202 201 205 211 244 27 30 26 19 14 17 25
253 250 246 243 239 235 236 240 238 238 237 231 224 219 218 216 214 213 210 211 215 218 208 195 190 195 202 209 216 221 222 222 219 214 213 217 221 222 225 231 235 252 268 289 318 333 339 353 2
253 249 246 243 237 225 229 237 238 239 236 230 224 223 224 223 222 217 216 217 221 224 216 207 201 201 207 212 217 223 225 226 223 220 221 226 229 232 236 240 244 253 257 261 267 274 290 293 292
251 249 245 240 234 229 231 236 239 239 235 229 224 225 227 229 225 224 223 226 226 228 228 224 217 212 214 218 220 223 226 227 226 227 229 232 234 237 240 244 249 250 252 255 257 263 268 269 266
250 247 244 238 231 229 232 235 238 237 235 229 223 226 229 231 233 233 228 230 233 235 234 234 231 226 221 221 226 229 232 232 232 233 236 237 237 238 240 244 247 248 250 251 254 259 262 264 261
249 245 242 235 230 229 231 233 234 235 232 227 223 229 233 234 238 239 235 238 241 244 245 242 241 239 235 232 233 236 236 236 237 237 238 240 240 241 242 244 247 250 249 250 251 255 256 259 258
246 241 237 232 229 228 230 232 232 233 233 230 227 229 234 235 239 241 239 243 246 252 255 254 247 243 243 243 242 242 242 242 243 241 241 241 243 243 244 247 249 252 251 250 250 254 255 256 256
243 238 234 230 228 229 230 231 233 234 234 235 231 230 235 237 241 245 249 254 255 257 259 259 255 252 252 251 250 248 246 245 247 246 245 245 245 245 245 247 250 251 251 250 251 253 255 256 256
238 233 229 228 228 230 230 230 234 235 235 236 234 234 238 243 248 252 256 260 263 266 268 267 264 263 260 258 256 254 250 248 249 248 248 248 248 249 249 249 250 250 251 251 252 254 254 254 255
235 229 228 230 231 231 230 230 233 235 236 236 236 237 240 245 253 258 260 266 270 274 275 272 268 265 262 259 257 256 255 253 255 253 249 249 250 251 252 252 252 252 252 252 252 253 253 253 254
236 231 231 231 232 232 231 231 233 234 237 238 240 243 246 252 257 259 263 267 271 275 279 279 276 272 267 261 259 257 257 257 257 257 253 252 252 253 253 253 254 253 253 254 253 252 252 253 253
237 235 232 231 232 232 231 232 234 236 238 241 243 246 250 255 258 262 266 269 271 276 278 279 279 275 269 264 261 261 260 260 259 259 255 257 255 253 255 253 254 254 254 255 254 253 252 254 253
235 234 232 231 230 231 232 233 235 237 240 242 243 247 252 256 260 263 266 271 273 275 277 277 278 275 272 268 264 262 263 262 261 260 258 259 259 256 254 254 255 255 254 256 256 253 253 253 254
232 230 229 228 228 230 233 235 236 238 242 244 245 248 252 257 262 267 268 270 272 273 274 274 274 274 271 268 265 262 263 263 263 262 259 259 261 259 255 255 256 256 255 254 254 253 253 252 253
227 226 227 226 226 229 232 236 238 240 243 245 248 252 255 259 262 264 265 267 269 271 272 273 272 272 269 267 265 264 265 265 266 265 264 261 261 257 256 255 256 256 257 256 254 254 255 253 253
223 223 226 228 226 228 229 236 240 242 244 247 252 255 258 260 261 262 265 267 268 269 271 271 272 271 269 268 268 266 265 265 266 265 264 260 259 259 257 256 256 256 258 256 254 255 256 255 254
219 216 222 230 228 229 227 233 240 242 247 250 254 257 258 258 259 261 263 264 266 267 268 268 270 270 270 268 266 265 264 265 266 267 264 259 257 257 256 255 257 256 257 256 254 254 256 256 254
216 216 224 232 232 231 233 237 242 245 251 255 256 257 258 259 260 260 261 262 263 265 265 266 267 267 268 266 265 265 267 267 265 266 265 262 258 257 256 256 258 257 256 257 255 254 256 256 254
216 217 225 235 236 235 238 243 247 249 254 256 256 256 257 260 260 260 260 262 264 265 265 266 267 267 267 266 264 266 268 269 267 267 268 262 259 257 257 257 258 258 257 256 256 255 255 255 255
215 218 228 236 236 238 243 248 251 252 254 256 257 260 262 262 262 261 262 263 265 267 268 268 267 267 267 264 264 265 267 268 269 269 268 262 258 256 258 256 254 255 256 256 253 254 255 256 255
214 214 225 234 238 242 245 248 249 252 256 259 260 263 265 265 264 264 265 266 268 268 268 267 266 267 266 264 265 266 267 267 267 267 266 261 258 257 256 255 255 253 253 254 252 253 253 253 252
215 222 228 236 240 245 244 247 257 255 258 261 263 266 268 268 267 268 269 269 270 270 269 267 267 267 264 263 264 265 266 267 266 266 266 261 258 257 254 253 255 253 254 254 254 255 253 251 249
218 224 229 235 236 245 251 245 259 261 262 263 265 267 268 269 270 272 273 273 274 272 270 269 268 267 264 263 262 263 266 267 265 264 263 260 258 257 254 254 255 254 255 255 255 254 254 252 250
222 227 236 243 246 250 253 251 260 267 265 265 266 269 271 273 273 275 275 276 277 274 272 270 269 268 265 262 261 261 264 265 264 263 262 262 260 258 257 257 256 255 254 252 251 252 251 250 249
222 226 240 247 250 252 261 259 257 267 269 270 271 273 275 276 278 279 280 281 280 277 273 268 268 268 266 264 264 263 263 265 265 264 263 262 261 260 257 257 256 256 254 252 249 249 247 247 246
226 224 228 239 247 255 271 266 266 271 272 272 271 273 274 277 279 280 282 283 282 279 274 270 269 268 269 268 267 266 264 266 265 265 264 262 261 260 258 258 259 258 255 251 248 247 246 244 243
232 230 231 242 253 258 266 273 273 272 272 272 273 274 275 278 280 282 283 282 282 281 278 274 272 270 270 269 268 267 267 267 266 265 264 263 262 261 260 260 259 255 251 250 248 246 246 244 245
232 237 242 248 258 263 269 275 279 277 273 273 275 276 278 280 282 283 285 283 283 283 280 276 274 272 272 269 269 267 267 267 267 267 264 263 261 261 259 256 256 253 251 249 248 248 247 246 245
242 246 249 252 256 264 271 273 277 280 276 276 278 280 281 283 285 285 285 284 283 283 282 278 274 274 275 272 268 266 266 267 268 268 266 264 261 260 259 256 253 251 251 248 245 247 250 250 250
242 249 254 258 266 268 270 273 277 279 281 280 281 283 284 287 289 288 287 286 284 282 281 279 277 277 278 276 271 266 265 266 268 268 266 262 261 259 258 256 255 253 250 250 248 246 249 251 251
Height
5883 5885 5887 5888 5891 5892 5892 5891 5891 5893 5895 5897 5899 5900 5901 5903 5904 5906 5904 5903 5904 5904 5904 5905 5905 5906 5907 5908 5908 5909 5910 5911 5911 5911 5911 5911 5911 5911 5912 5912 5912 5912 5912 5912 5912 5912 5912 5912 5912
5879 5881 5883 5885 5887 5889 5889 5887 5888 5890 5892 5895 5897 5898 5899 5900 5901 5901 5901 5901 5902 5902 5903 5903 5904 5905 5906 5906 5907 5908 5909 5909 5910 5910 5910 5910 5910 5910 5911 5911 5911 5911 5912 5912 5911 5911 5911 5911 5911
5875 5877 5880 5882 5884 5886 5885 5883 5884 5887 5890 5893 5895 5896 5898 5898 5899 5899 5899 5900 5900 5901 5901 5902 5902 5903 5904 5905 5906 5906 5907 5908 5908 5909 5909 5909 5909 5909 5910 5910 5910 5910 5911 5911 5911 5910 5910 5910 5910
5871 5873 5876 5879 5880 5879 5878 5879 5881 5884 5887 5890 5892 5894 5895 5896 5897 5897 5897 5898 5898 5898 5899 5900 5901 5902 5902 5903 5904 5905 5905 5906 5907 5907 5907 5907 5908 5908 5909 5909 5909 5909 5909 5909 5909 5909 5909 5909 5909
5867 5869 5872 5874 5874 5874 5874 5875 5878 5881 5884 5888 5890 5892 5893 5894 5894 5895 5895 5896 5896 5897 5897 5898 5898 5900 5900 5901 5902 5903 5903 5904 5904 5905 5905 5906 5906 5906 5907 5907 5907 5907 5907 5908 5908 5908 5908 5908 5907
5863 5866 5868 5869 5870 5870 5871 5873 5875 5878 5882 5885 5888 5889 5890 5891 5892 5893 5894 5894 5894 5895 5895 5895 5896 5897 5898 5899 5900 5900 5901 5901 5902 5902 5903 5903 5904 5904 5905 5905 5905 5905 5906 5906 5906 5906 5906 5906 5906
5860 5862 5863 5865 5865 5866 5867 5869 5872 5875 5879 5882 5885 5886 5887 5888 5889 5890 5891 5891 5892 5892 5893 5893 5894 5894 5895 5896 5897 5897 5898 5899 5899 5900 5900 5901 5901 5902 5902 5902 5903 5903 5903 5904 5904 5904 5904 5904 5904
5855 5858 5859 5860 5861 5862 5864 5866 5869 5872 5875 5878 5882 5884 5885 5886 5886 5888 5888 5889 5890 5890 5890 5891 5891 5892 5892 5893 5894 5894 5895 5896 5896 5897 5897 5898 5898 5898 5899 5899 5900 5900 5901 5901 5901 5901 5902 5902 5902
5851 5854 5855 5856 5857 5859 5861 5863 5866 5869 5872 5875 5878 5880 5882 5883 5884 5885 5886 5887 5887 5887 5888 5888 5888 5889 5889 5890 5890 5891 5891 5892 5892 5893 5893 5894 5894 5895 5896 5896 5897 5897 5897 5898 5898 5899 5899 5899 5899
5847 5849 5850 5851 5853 5855 5857 5860 5863 5866 5869 5872 5875 5877 5879 5881 5882 5883 5883 5883 5884 5884 5884 5885 5885 5885 5886 5886 5886 5887 5887 5888 5888 5888 5889 5890 5890 5891 5891 5892 5893 5893 5894 5894 5895 5895 5895 5895 5896
5843 5845 5846 5847 5849 5852 5854 5857 5860 5863 5866 5869 5871 5874 5876 5878 5879 5879 5879 5880 5880 5881 5881 5881 5881 5881 5882 5882 5882 5883 5883 5883 5883 5884 5884 5885 5886 5886 5887 5887 5888 5889 5890 5890 5891 5891 5892 5892 5892
5840 5841 5842 5844 5846 5848 5851 5853 5857 5859 5862 5865 5868 5871 5873 5874 5875 5875 5876 5876 5877 5877 5877 5877 5877 5877 5878 5878 5878 5878 5878 5878 5878 5879 5879 5880 5881 5881 5882 5882 5883 5884 5885 5886 5886 5887 5888 5888 5888
5836 5838 5839 5841 5843 5845 5848 5850 5853 5856 5859 5862 5864 5867 5869 5870 5871 5871 5872 5872 5873 5873 5873 5872 5873 5873 5873 5873 5873 5873 5873 5873 5873 5873 5874 5875 5875 5876 5876 5877 5878 5879 5880 5881 5882 5883 5883 5884 5884
5833 5834 5836 5838 5840 5842 5845 5848 5850 5853 5855 5858 5861 5863 5865 5866 5867 5867 5867 5867 5868 5868 5868 5868 5868 5868 5868 5868 5867 5867 5868 5868 5868 5868 5869 5869 5869 5869 5870 5871 5872 5873 5874 5875 5877 5878 5878 5879 5879
5830 5832 5834 5835 5838 5840 5843 5845 5847 5850 5852 5855 5857 5858 5860 5861 5862 5862 5862 5863 5862 5863 5863 5863 5863 5863 5863 5862 5862 5862 5862 5862 5862 5862 5863 5863 5863 5863 5863 5865 5866 5867 5868 5870 5871 5872 5873 5874 5874
5828 5830 5832 5833 5835 5837 5842 5843 5844 5846 5849 5851 5852 5854 5855 5856 5856 5857 5857 5858 5858 5858 5858 5858 5857 5857 5857 5857 5856 5856 5856 5856 5855 5855 5855 5856 5856 5857 5858 5859 5860 5861 5862 5863 5865 5866 5867 5868 5869
5826 5829 5830 5831 5832 5835 5838 5839 5841 5843 5845 5847 5848 5849 5850 5851 5851 5852 5852 5852 5852 5852 5852 5852 5852 5852 5851 5851 5850 5850 5850 5850 5849 5848 5849 5848 5848 5849 5851 5852 5854 5854 5855 5857 5858 5859 5861 5861 5862
5824 5826 5827 5828 5830 5832 5834 5836 5838 5839 5841 5842 5844 5845 5845 5846 5846 5847 5847 5847 5847 5847 5846 5846 5846 5845 5845 5845 5844 5844 5844 5843 5843 5843 5842 5841 5841 5842 5844 5845 5846 5847 5848 5850 5851 5852 5853 5854 5855
5820 5823 5824 5825 5827 5829 5831 5833 5834 5836 5837 5838 5839 5840 5841 5841 5841 5841 5841 5841 5841 5841 5840 5840 5839 5839 5839 5838 5838 5838 5837 5837 5837 5836 5835 5835 5834 5836 5837 5838 5840 5841 5841 5842 5843 5845 5846 5847 5848
5818 5821 5822 5823 5825 5827 5828 5830 5831 5832 5834 5834 5835 5836 5836 5836 5836 5836 5836 5835 5835 5835 5834 5833 5833 5832 5832 5832 5831 5831 5831 5831 5830 5829 5827 5827 5828 5829 5830 5831 5832 5833 5834 5834 5835 5837 5838 5839 5840
5816 5818 5820 5821 5823 5824 5826 5828 5828 5829 5830 5830 5831 5831 5831 5831 5830 5830 5830 5829 5829 5828 5827 5826 5826 5825 5825 5824 5824 5824 5824 5824 5823 5822 5821 5821 5821 5822 5823 5824 5825 5825 5826 5827 5828 5829 5830 5832 5833
5814 5815 5817 5819 5821 5823 5825 5827 5825 5826 5826 5826 5826 5826 5826 5825 5824 5824 5823 5822 5822 5821 5820 5819 5818 5818 5817 5817 5817 5817 5817 5817 5816 5815 5814 5814 5814 5814 5815 5816 5817 5818 5819 5820 5820 5821 5823 5824 5825
5811 5812 5815 5816 5819 5821 5822 5825 5824 5822 5822 5821 5821 5820 5820 5819 5818 5817 5817 5816 5815 5814 5813 5812 5811 5811 5810 5810 5810 5810 5810 5809 5809 5808 5808 5807 5808 5808 5809 5809 5810 5811 5812 5812 5813 5814 5815 5816 5818
5808 5811 5813 5814 5817 5819 5819 5821 5821 5818 5817 5817 5816 5815 5814 5813 5812 5811 5810 5809 5808 5806 5805 5804 5804 5803 5803 5803 5803 5803 5803 5803 5802 5802 5801 5801 5801 5802 5802 5802 5803 5804 5804 5805 5806 5807 5808 5809 5811
5806 5810 5813 5814 5815 5817 5815 5815 5816 5813 5813 5812 5811 5810 5808 5807 5806 5805 5804 5803 5801 5800 5798 5798 5797 5797 5797 5797 5797 5797 5797 5796 5796 5795 5795 5795 5795 5795 5795 5796 5796 5797 5797 5798 5799 5800 5801 5802 5804
5804 5807 5812 5813 5814 5813 5810 5810 5810 5808 5807 5806 5805 5804 5803 5802 5801 5800 5798 5796 5795 5793 5792 5792 5791 5791 5791 5790 5790 5790 5790 5790 5789 5789 5788 5788 5788 5788 5789 5789 5789 5790 5790 5791 5792 5793 5794 5796 5797
5801 5803 5806 5807 5808 5809 5808 5806 5805 5803 5802 5801 5800 5799 5798 5797 5795 5794 5792 5791 5789 5788 5787 5786 5785 5785 5785 5784 5784 5784 5784 5783 5783 5782 5782 5782 5782 5782 5782 5782 5783 5783 5784 5785 5786 5787 5788 5789 5791
5798 5800 5801 5803 5804 5805 5805 5803 5802 5799 5798 5797 5795 5794 5793 5792 5790 5788 5787 5785 5784 5782 5781 5780 5779 5779 5779 5778 5778 5777 5777 5777 5777 5776 5776 5776 5776 5776 5776 5776 5777 5778 5778 5779 5780 5781 5782 5784 5785
5795 5797 5798 5799 5800 5801 5801 5801 5796 5794 5793 5792 5791 5789 5788 5787 5785 5783 5781 5780 5778 5777 5775 5774 5774 5773 5773 5772 5772 5771 5771 5771 5770 5770 5770 5770 5770 5770 5771 5771 5771 5772 5773 5774 5775 5776 5777 5778 5778
5791 5793 5794 5796 5796 5795 5796 5797 5792 5790 5788 5787 5786 5784 5783 5781 5779 5777 5775 5774 5772 5771 5770 5769 5768 5767 5767 5766 5766 5765 5765 5765 5765 5764 5764 5764 5764 5765 5765 5765 5766 5767 5768 5768 5769 5770 5771 5772 5773